Location: Étavigny
(49.1201°N, 2.9800°E)
Time: 12:03:30
(UTC+00:00)

ATLAS 2AS CENTAUR R/B - Pass Details

Date: 28 January 2023
Orbit: 986 x 1226 km, 63.7° (Epoch: 31 January)

Event Time Altitude Azimuth Distance (km) Brightness Sun altitude
Rises 17:18:01 0° 312° (NW) 4,040 6.1 -6.8°
Reaches altitude 10° 17:21:06 10° 321° (NW) 3,041 5.4 -7.3°
Maximum altitude 17:27:39 36° 26° (NNE) 1,683 3.4 -8.3°
Drops below altitude 10° 17:33:51 10° 91° (E) 2,872 4.4 -9.3°
Enters shadow 17:34:02 - 92° (E) 2,934 4.4 -9.3°
